UAL1441 KDEN-KLAX

Flight info

Callsign UAL1441
Flight time 2h 5m
Altitude 32000
Route BAYLR6 TEHRU JASSE Q90 DNERO ANJLL4
Aircraft B739/M-SDE2E3FGHIRWXY/LB1

Departure

Time 2026-04-25 23:31
Airport Denver International Airport (KDEN)

Arrival

Time 2026-04-26 01:37
Airport Los Angeles International Airport (KLAX)
Time Latitude Longitude Altitude Speed Heading
2026-04-25 23:03 39.85798 -104.67627 5364 ft 0 kts 360°
2026-04-25 23:21 39.85780 -104.67627 5362 ft 3 kts 360°
2026-04-25 23:21 39.85758 -104.67627 5362 ft 4 kts 360°
2026-04-25 23:22 39.85743 -104.67627 5363 ft 0 kts 360°
2026-04-25 23:24 39.85746 -104.67627 5365 ft 1 kts 352°
2026-04-25 23:24 39.85755 -104.67642 5363 ft 3 kts 292°
2026-04-25 23:24 39.85742 -104.67666 5365 ft 5 kts 212°
2026-04-25 23:25 39.85704 -104.67696 5364 ft 8 kts 209°
2026-04-25 23:25 39.85658 -104.67737 5364 ft 4 kts 266°
2026-04-25 23:25 39.85664 -104.67797 5363 ft 9 kts 276°
2026-04-25 23:25 39.85668 -104.67903 5365 ft 14 kts 269°
2026-04-25 23:26 39.85668 -104.68044 5365 ft 15 kts 270°
2026-04-25 23:26 39.85653 -104.68173 5365 ft 15 kts 221°
2026-04-25 23:26 39.85597 -104.68276 5365 ft 14 kts 270°
2026-04-25 23:26 39.85568 -104.68386 5363 ft 14 kts 205°
2026-04-25 23:27 39.85476 -104.68397 5363 ft 13 kts 177°
2026-04-25 23:27 39.85387 -104.68399 5363 ft 13 kts 180°
2026-04-25 23:27 39.85300 -104.68400 5363 ft 12 kts 183°
2026-04-25 23:27 39.85219 -104.68417 5364 ft 12 kts 228°
2026-04-25 23:28 39.85204 -104.68521 5365 ft 12 kts 269°
2026-04-25 23:28 39.85201 -104.68627 5365 ft 11 kts 268°
2026-04-25 23:28 39.85200 -104.68729 5365 ft 11 kts 269°
2026-04-25 23:28 39.85199 -104.68828 5364 ft 11 kts 269°
2026-04-25 23:29 39.85198 -104.68930 5364 ft 12 kts 268°
2026-04-25 23:29 39.85195 -104.69045 5365 ft 14 kts 268°
2026-04-25 23:29 39.85195 -104.69181 5365 ft 16 kts 272°
2026-04-25 23:29 39.85198 -104.69338 5363 ft 18 kts 272°
2026-04-25 23:30 39.85202 -104.69512 5363 ft 19 kts 271°
2026-04-25 23:30 39.85234 -104.69644 5365 ft 15 kts 332°
2026-04-25 23:30 39.85343 -104.69656 5363 ft 27 kts
2026-04-25 23:30 39.85758 -104.69651 5366 ft 91 kts
2026-04-25 23:31 39.86583 -104.69641 5363 ft 144 kts
2026-04-25 23:31 39.87732 -104.69619 5380 ft 184 kts
2026-04-25 23:31 39.89027 -104.69631 6011 ft 184 kts
2026-04-25 23:31 39.90371 -104.69744 6480 ft 206 kts 347°
2026-04-25 23:32 39.91585 -104.70762 6968 ft 219 kts 306°
2026-04-25 23:32 39.92119 -104.72655 7253 ft 233 kts 268°
2026-04-25 23:32 39.91715 -104.74713 7445 ft 242 kts 237°
2026-04-25 23:32 39.90585 -104.76403 7662 ft 253 kts 217°
2026-04-25 23:33 39.89204 -104.77852 8208 ft 253 kts 216°
2026-04-25 23:33 39.88284 -104.78806 8497 ft 260 kts 216°
2026-04-25 23:33 39.86334 -104.80852 8953 ft 278 kts 217°
2026-04-25 23:33 39.84849 -104.82440 9905 ft 272 kts 218°
2026-04-25 23:34 39.83382 -104.84026 10514 ft 279 kts 219°
2026-04-25 23:34 39.82368 -104.85127 10623 ft 294 kts 219°
2026-04-25 23:34 39.80742 -104.86897 10771 ft 315 kts 219°
2026-04-25 23:34 39.79008 -104.88791 10920 ft 334 kts 221°
2026-04-25 23:35 39.77480 -104.91180 11045 ft 354 kts 241°
2026-04-25 23:35 39.76611 -104.94231 11180 ft 373 kts 253°
2026-04-25 23:35 39.75927 -104.97550 11423 ft 385 kts 253°
2026-04-25 23:35 39.75217 -105.00926 11992 ft 388 kts 253°
2026-04-25 23:36 39.74436 -105.04273 12642 ft 387 kts 249°
2026-04-25 23:36 39.73421 -105.07507 13288 ft 386 kts 246°
2026-04-25 23:36 39.72320 -105.10707 13838 ft 388 kts 246°
2026-04-25 23:36 39.71206 -105.13924 14339 ft 390 kts 246°
2026-04-25 23:37 39.70125 -105.17113 14833 ft 391 kts 246°
2026-04-25 23:37 39.69043 -105.20368 15336 ft 393 kts 247°
2026-04-25 23:37 39.67965 -105.23648 15825 ft 394 kts 247°
2026-04-25 23:37 39.66890 -105.26923 16350 ft 395 kts 247°
2026-04-25 23:38 39.65809 -105.30211 16809 ft 397 kts 247°
2026-04-25 23:38 39.64718 -105.33524 17180 ft 402 kts 247°
2026-04-25 23:38 39.63611 -105.36877 17610 ft 403 kts 247°
2026-04-25 23:38 39.62505 -105.40226 18116 ft 404 kts 247°
2026-04-25 23:39 39.61410 -105.43546 18530 ft 405 kts 247°
2026-04-25 23:39 39.60295 -105.46925 18939 ft 407 kts 247°
2026-04-25 23:39 39.59175 -105.50309 19334 ft 408 kts 247°
2026-04-25 23:39 39.58044 -105.53708 19763 ft 410 kts 247°
2026-04-25 23:40 39.56911 -105.57106 20173 ft 411 kts 247°
2026-04-25 23:40 39.55787 -105.60470 20576 ft 412 kts 247°
2026-04-25 23:40 39.54685 -105.63904 20971 ft 414 kts 249°
2026-04-25 23:40 39.53681 -105.67426 21213 ft 418 kts 250°
2026-04-25 23:41 39.52714 -105.71001 21534 ft 421 kts 251°
2026-04-25 23:41 39.51753 -105.74587 21964 ft 421 kts 251°
2026-04-25 23:41 39.50786 -105.78164 22359 ft 421 kts 251°
2026-04-25 23:41 39.49808 -105.81741 22696 ft 423 kts 251°
2026-04-25 23:42 39.48813 -105.85348 23016 ft 425 kts 251°
2026-04-25 23:42 39.47809 -105.88962 23382 ft 425 kts 251°
2026-04-25 23:42 39.46818 -105.92517 23690 ft 426 kts 251°
2026-04-25 23:42 39.45807 -105.96131 24007 ft 426 kts 251°
2026-04-25 23:43 39.44798 -105.99738 24335 ft 426 kts 251°
2026-04-25 23:43 39.43787 -106.03348 24630 ft 427 kts 251°
2026-04-25 23:43 39.42771 -106.06968 24949 ft 427 kts 251°
2026-04-25 23:43 39.41754 -106.10593 25212 ft 428 kts 251°
2026-04-25 23:44 39.40734 -106.14223 25522 ft 428 kts 251°
2026-04-25 23:44 39.39716 -106.17839 25921 ft 426 kts 251°
2026-04-25 23:44 39.38702 -106.21434 26396 ft 423 kts 250°
2026-04-25 23:44 39.37709 -106.24952 26875 ft 419 kts 251°
2026-04-25 23:45 39.36713 -106.28482 27544 ft 416 kts 250°
2026-04-25 23:45 39.35720 -106.31994 28030 ft 414 kts 250°
2026-04-25 23:45 39.34733 -106.35485 28509 ft 411 kts 250°
2026-04-25 23:45 39.33765 -106.38902 28981 ft 409 kts 250°
2026-04-25 23:46 39.32789 -106.42345 29411 ft 407 kts 250°
2026-04-25 23:46 39.31813 -106.45782 29790 ft 406 kts 250°
2026-04-25 23:46 39.30843 -106.49195 30189 ft 403 kts 250°
2026-04-25 23:46 39.29880 -106.52577 30573 ft 400 kts 250°
2026-04-25 23:47 39.28918 -106.55952 30891 ft 400 kts 250°
2026-04-25 23:47 39.27967 -106.59287 31122 ft 399 kts 250°
2026-04-25 23:47 39.27004 -106.62654 31335 ft 400 kts 250°
2026-04-25 23:47 39.26034 -106.66039 31555 ft 401 kts 250°
2026-04-25 23:48 39.25064 -106.69428 31878 ft 400 kts 250°
2026-04-25 23:48 39.22361 -106.75648 31914 ft 404 kts 236°
2026-04-25 23:49 39.18970 -106.81400 31916 ft 400 kts 236°
2026-04-25 23:49 39.15650 -106.87092 31915 ft 399 kts 236°
2026-04-25 23:49 39.13988 -106.89954 31735 ft 398 kts 236°
2026-04-25 23:50 39.12329 -106.92814 31704 ft 397 kts 236°
2026-04-25 23:50 39.09031 -106.98498 31712 ft 395 kts 236°
2026-04-25 23:51 39.05713 -107.04215 31728 ft 402 kts 236°
2026-04-25 23:51 39.02370 -107.09963 31722 ft 403 kts 236°
2026-04-25 23:52 38.99002 -107.15738 31730 ft 403 kts 236°
2026-04-25 23:52 38.95627 -107.21516 31696 ft 404 kts 236°
2026-04-25 23:53 38.92255 -107.27280 31725 ft 404 kts 236°
2026-04-25 23:53 38.88891 -107.33021 31722 ft 404 kts 236°
2026-04-25 23:54 38.85503 -107.38790 31722 ft 403 kts 236°
2026-04-25 23:54 38.82123 -107.44537 31725 ft 403 kts 236°
2026-04-25 23:55 38.78740 -107.50278 31705 ft 400 kts 236°
2026-04-25 23:55 38.75399 -107.55937 31719 ft 400 kts 236°
2026-04-25 23:56 38.72028 -107.61639 31681 ft 401 kts 236°
2026-04-25 23:56 38.68651 -107.67340 31687 ft 401 kts 236°
2026-04-25 23:57 38.65268 -107.73041 31679 ft 401 kts 236°
2026-04-25 23:57 38.61907 -107.78697 31664 ft 401 kts 236°
2026-04-25 23:57 38.60209 -107.81548 31831 ft 402 kts 236°
2026-04-25 23:58 38.58506 -107.84408 31859 ft 402 kts 236°
2026-04-25 23:58 38.55130 -107.90067 31853 ft 403 kts 236°
2026-04-25 23:59 38.51730 -107.95756 31853 ft 402 kts 236°
2026-04-25 23:59 38.48331 -108.01434 31841 ft 401 kts 236°
2026-04-26 00:00 38.44938 -108.07091 31818 ft 400 kts 236°
2026-04-26 00:00 38.41547 -108.12736 31779 ft 399 kts 235°
2026-04-26 00:01 38.38193 -108.18309 31757 ft 398 kts 236°
2026-04-26 00:01 38.34822 -108.23903 31712 ft 396 kts 236°
2026-04-26 00:02 38.31458 -108.29474 31682 ft 396 kts 236°
2026-04-26 00:02 38.28092 -108.35038 31687 ft 396 kts 235°
2026-04-26 00:03 38.24724 -108.40598 31694 ft 395 kts 235°
2026-04-26 00:03 38.21380 -108.46108 31682 ft 395 kts 235°
2026-04-26 00:04 38.18017 -108.51640 31675 ft 395 kts 235°
2026-04-26 00:04 38.14675 -108.57128 31678 ft 394 kts 235°
2026-04-26 00:05 38.11318 -108.62630 31679 ft 394 kts 235°
2026-04-26 00:05 38.07964 -108.68121 31667 ft 394 kts 235°
2026-04-26 00:06 38.04599 -108.73618 31653 ft 394 kts 234°
2026-04-26 00:06 38.01235 -108.79106 31659 ft 394 kts 234°
2026-04-26 00:07 37.97856 -108.84608 31670 ft 394 kts 234°
2026-04-26 00:07 37.94489 -108.90082 31670 ft 396 kts 234°
2026-04-26 00:08 37.91092 -108.95595 31682 ft 396 kts 234°
2026-04-26 00:08 37.87684 -109.01116 31671 ft 397 kts 234°
2026-04-26 00:09 37.84293 -109.06600 31672 ft 398 kts 234°
2026-04-26 00:09 37.80880 -109.12112 31679 ft 397 kts 234°
2026-04-26 00:10 37.77483 -109.17589 31703 ft 398 kts 234°
2026-04-26 00:10 37.74063 -109.23093 31722 ft 398 kts 233°
2026-04-26 00:11 37.70634 -109.28602 31769 ft 398 kts 233°
2026-04-26 00:11 37.67194 -109.34120 31812 ft 400 kts 233°
2026-04-26 00:12 37.63769 -109.39606 31845 ft 400 kts 233°
2026-04-26 00:12 37.60305 -109.45143 31845 ft 401 kts 233°
2026-04-26 00:13 37.56833 -109.50684 31839 ft 402 kts 233°
2026-04-26 00:13 37.53379 -109.56187 31840 ft 403 kts 233°
2026-04-26 00:14 37.49900 -109.61721 31814 ft 402 kts 233°
2026-04-26 00:14 37.46417 -109.67252 31768 ft 402 kts 233°
2026-04-26 00:14 37.44677 -109.70012 31653 ft 402 kts 233°
2026-04-26 00:15 37.42933 -109.72776 31620 ft 402 kts 233°
2026-04-26 00:15 37.39472 -109.78253 31629 ft 402 kts 233°
2026-04-26 00:16 37.35987 -109.83759 31645 ft 402 kts 233°
2026-04-26 00:16 37.32493 -109.89270 31636 ft 402 kts 233°
2026-04-26 00:17 37.29025 -109.94733 31640 ft 402 kts 233°
2026-04-26 00:17 37.26092 -109.99345 31647 ft 403 kts 233°
2026-04-26 00:18 37.22604 -110.04821 31644 ft 404 kts 233°
2026-04-26 00:18 37.19078 -110.10348 31649 ft 405 kts 233°
2026-04-26 00:19 37.15547 -110.15873 31652 ft 405 kts 233°
2026-04-26 00:19 37.12041 -110.21351 31627 ft 405 kts 233°
2026-04-26 00:20 37.08505 -110.26866 31647 ft 405 kts 233°
2026-04-26 00:20 37.04967 -110.32375 31664 ft 406 kts 233°
2026-04-26 00:21 37.01424 -110.37884 31671 ft 406 kts 233°
2026-04-26 00:21 36.97893 -110.43363 31671 ft 407 kts 233°
2026-04-26 00:22 36.94325 -110.48892 31687 ft 408 kts 233°
2026-04-26 00:22 36.90774 -110.54387 31684 ft 408 kts 233°
2026-04-26 00:23 36.87205 -110.59897 31698 ft 406 kts 233°
2026-04-26 00:23 36.83638 -110.65396 31688 ft 407 kts 233°
2026-04-26 00:24 36.80072 -110.70885 31696 ft 407 kts 233°
2026-04-26 00:24 36.76522 -110.76342 31700 ft 407 kts 233°
2026-04-26 00:25 36.72943 -110.81833 31718 ft 407 kts 233°
2026-04-26 00:25 36.69362 -110.87318 31697 ft 407 kts 233°
2026-04-26 00:26 36.65807 -110.92754 31707 ft 406 kts 233°
2026-04-26 00:26 36.62234 -110.98209 31698 ft 406 kts 233°
2026-04-26 00:27 36.58660 -111.03658 31707 ft 405 kts 233°
2026-04-26 00:27 36.55111 -111.09058 31722 ft 405 kts 233°
2026-04-26 00:28 36.51543 -111.14480 31739 ft 405 kts 232°
2026-04-26 00:28 36.47975 -111.19892 31735 ft 404 kts 232°
2026-04-26 00:29 36.44440 -111.25247 31734 ft 405 kts 232°
2026-04-26 00:29 36.40821 -111.30719 31741 ft 405 kts 232°
2026-04-26 00:30 36.37235 -111.36133 31740 ft 405 kts 232°
2026-04-26 00:30 36.33685 -111.41483 31734 ft 394 kts 232°
2026-04-26 00:30 36.31971 -111.44060 31730 ft 379 kts 232°
2026-04-26 00:31 36.30331 -111.46526 31747 ft 372 kts 232°
2026-04-26 00:31 36.27036 -111.51480 31755 ft 371 kts 232°
2026-04-26 00:32 36.23746 -111.56421 31782 ft 372 kts 232°
2026-04-26 00:32 36.18802 -111.63829 31774 ft 372 kts 232°
2026-04-26 00:33 36.15520 -111.68735 31775 ft 371 kts 233°
2026-04-26 00:33 36.12215 -111.73673 31747 ft 371 kts 232°
2026-04-26 00:34 36.08943 -111.78552 31807 ft 370 kts 233°
2026-04-26 00:34 36.06217 -111.83939 31860 ft 370 kts 247°
2026-04-26 00:35 36.04323 -111.89875 31897 ft 372 kts 248°
2026-04-26 00:35 36.02436 -111.95857 31929 ft 374 kts 248°
2026-04-26 00:36 36.00542 -112.01811 31959 ft 375 kts 248°
2026-04-26 00:36 35.98619 -112.07820 31977 ft 375 kts 248°
2026-04-26 00:37 35.96704 -112.13785 31986 ft 375 kts 248°
2026-04-26 00:37 35.94775 -112.19775 31971 ft 375 kts 248°
2026-04-26 00:38 35.92846 -112.25755 31971 ft 373 kts 248°
2026-04-26 00:38 35.90935 -112.31667 31952 ft 372 kts 248°
2026-04-26 00:39 35.89019 -112.37584 31926 ft 370 kts 248°
2026-04-26 00:39 35.87111 -112.43465 31907 ft 369 kts 248°
2026-04-26 00:40 35.85214 -112.49299 31867 ft 368 kts 247°
2026-04-26 00:40 35.83306 -112.55156 31853 ft 367 kts 247°
2026-04-26 00:41 35.81397 -112.61002 31847 ft 367 kts 247°
2026-04-26 00:41 35.79490 -112.66833 31848 ft 367 kts 247°
2026-04-26 00:42 35.77594 -112.72621 31837 ft 367 kts 247°
2026-04-26 00:42 35.75676 -112.78463 31842 ft 368 kts 247°
2026-04-26 00:43 35.73736 -112.84358 31836 ft 371 kts 247°
2026-04-26 00:43 35.71800 -112.90233 31831 ft 373 kts 247°
2026-04-26 00:44 35.69839 -112.96170 31823 ft 375 kts 247°
2026-04-26 00:44 35.67869 -113.02124 31820 ft 375 kts 247°
2026-04-26 00:45 35.65906 -113.08044 31800 ft 374 kts 247°
2026-04-26 00:45 35.63961 -113.13904 31799 ft 365 kts 246°
2026-04-26 00:46 35.62054 -113.19636 31797 ft 364 kts 246°
2026-04-26 00:46 35.60127 -113.25407 31778 ft 364 kts 246°
2026-04-26 00:47 35.58197 -113.31166 31781 ft 364 kts 246°
2026-04-26 00:47 35.56236 -113.37006 31773 ft 374 kts 246°
2026-04-26 00:48 35.54235 -113.42956 31783 ft 384 kts 246°
2026-04-26 00:48 35.52164 -113.49105 31768 ft 392 kts 246°
2026-04-26 00:49 35.50066 -113.55320 31754 ft 400 kts 246°
2026-04-26 00:49 35.47917 -113.61677 31742 ft 403 kts 246°
2026-04-26 00:50 35.45770 -113.68015 31753 ft 403 kts 246°
2026-04-26 00:50 35.43608 -113.74385 31787 ft 404 kts 246°
2026-04-26 00:51 35.41457 -113.80705 31799 ft 403 kts 246°
2026-04-26 00:51 35.39293 -113.87055 31824 ft 403 kts 246°
2026-04-26 00:52 35.37130 -113.93383 31834 ft 402 kts 246°
2026-04-26 00:52 35.34977 -113.99673 31846 ft 401 kts 246°
2026-04-26 00:53 35.32814 -114.05978 31831 ft 401 kts 246°
2026-04-26 00:53 35.30650 -114.12274 31815 ft 401 kts 245°
2026-04-26 00:54 35.28479 -114.18577 31790 ft 401 kts 245°
2026-04-26 00:54 35.26309 -114.24865 31764 ft 401 kts 245°
2026-04-26 00:55 35.24146 -114.31116 31739 ft 401 kts 245°
2026-04-26 00:55 35.21962 -114.37421 31712 ft 401 kts 245°
2026-04-26 00:56 35.19780 -114.43705 31725 ft 401 kts 245°
2026-04-26 00:56 35.17593 -114.49991 31717 ft 402 kts 245°
2026-04-26 00:57 35.15415 -114.56241 31703 ft 401 kts 245°
2026-04-26 00:57 35.13223 -114.62518 31700 ft 400 kts 245°
2026-04-26 00:58 35.11045 -114.68791 31703 ft 400 kts 245°
2026-04-26 00:58 35.08885 -114.75024 31710 ft 400 kts 245°
2026-04-26 00:59 35.06712 -114.81279 31741 ft 400 kts 245°
2026-04-26 00:59 35.04552 -114.87481 31730 ft 399 kts 245°
2026-04-26 01:00 35.02290 -114.93551 31754 ft 382 kts 241°
2026-04-26 01:00 34.99802 -114.99230 31756 ft 377 kts 240°
2026-04-26 01:01 34.97325 -115.04823 31779 ft 376 kts 240°
2026-04-26 01:01 34.94866 -115.10441 31770 ft 374 kts 240°
2026-04-26 01:02 34.92429 -115.16040 31766 ft 371 kts 240°
2026-04-26 01:02 34.90037 -115.21536 31766 ft 368 kts 240°
2026-04-26 01:03 34.87640 -115.27037 31757 ft 366 kts 240°
2026-04-26 01:03 34.85648 -115.31599 31755 ft 366 kts 240°
2026-04-26 01:04 34.83262 -115.37059 31757 ft 366 kts 240°
2026-04-26 01:04 34.80855 -115.42557 31765 ft 370 kts 240°
2026-04-26 01:05 34.78491 -115.48120 31743 ft 373 kts 243°
2026-04-26 01:05 34.76381 -115.53883 31737 ft 373 kts 244°
2026-04-26 01:06 34.74322 -115.59602 31735 ft 365 kts 243°
2026-04-26 01:06 34.72268 -115.65221 31757 ft 362 kts 243°
2026-04-26 01:07 34.70207 -115.70810 31740 ft 361 kts 243°
2026-04-26 01:07 34.68159 -115.76349 31737 ft 360 kts 243°
2026-04-26 01:08 34.66103 -115.81903 31730 ft 359 kts 243°
2026-04-26 01:08 34.64045 -115.87448 31721 ft 359 kts 243°
2026-04-26 01:09 34.61993 -115.92989 31727 ft 360 kts 243°
2026-04-26 01:09 34.59950 -115.98535 31733 ft 361 kts 243°
2026-04-26 01:10 34.57904 -116.04081 31727 ft 362 kts 243°
2026-04-26 01:10 34.55843 -116.09658 31722 ft 362 kts 243°
2026-04-26 01:11 34.53779 -116.15231 31735 ft 363 kts 242°
2026-04-26 01:11 34.51706 -116.20820 31722 ft 363 kts 242°
2026-04-26 01:12 34.49635 -116.26393 31750 ft 362 kts 242°
2026-04-26 01:12 34.47558 -116.31973 31738 ft 363 kts 242°
2026-04-26 01:13 34.45489 -116.37523 31732 ft 363 kts 242°
2026-04-26 01:13 34.43401 -116.43115 31728 ft 362 kts 242°
2026-04-26 01:14 34.41330 -116.48635 31752 ft 361 kts 241°
2026-04-26 01:14 34.39086 -116.54105 31262 ft 368 kts 240°
2026-04-26 01:15 34.37931 -116.56863 30677 ft 368 kts 240°
2026-04-26 01:15 34.36771 -116.59650 30008 ft 368 kts 240°
2026-04-26 01:15 34.35625 -116.62421 29416 ft 365 kts 240°
2026-04-26 01:15 34.34508 -116.65129 28848 ft 362 kts 240°
2026-04-26 01:16 34.33387 -116.67844 28317 ft 357 kts 241°
2026-04-26 01:16 34.32285 -116.70556 27559 ft 359 kts 241°
2026-04-26 01:16 34.31200 -116.73259 27062 ft 355 kts 241°
2026-04-26 01:16 34.30125 -116.75945 26552 ft 354 kts 241°
2026-04-26 01:17 34.29055 -116.78611 26037 ft 351 kts 241°
2026-04-26 01:17 34.27992 -116.81258 25556 ft 347 kts 241°
2026-04-26 01:17 34.26949 -116.83849 25085 ft 345 kts 241°
2026-04-26 01:17 34.25899 -116.86452 24604 ft 342 kts 241°
2026-04-26 01:18 34.24858 -116.89030 24193 ft 340 kts 241°
2026-04-26 01:18 34.23823 -116.91595 23715 ft 338 kts 241°
2026-04-26 01:18 34.22792 -116.94143 23202 ft 336 kts 241°
2026-04-26 01:18 34.21769 -116.96672 22687 ft 333 kts 241°
2026-04-26 01:19 34.20808 -116.99173 22208 ft 332 kts 245°
2026-04-26 01:19 34.20054 -117.01812 21748 ft 331 kts 249°
2026-04-26 01:19 34.19373 -117.04490 21118 ft 332 kts 250°
2026-04-26 01:19 34.18695 -117.07159 20655 ft 331 kts 249°
2026-04-26 01:20 34.18011 -117.09761 20242 ft 327 kts 249°
2026-04-26 01:20 34.17317 -117.12345 19842 ft 319 kts 249°
2026-04-26 01:20 34.16634 -117.14867 19433 ft 311 kts 249°
2026-04-26 01:20 34.15968 -117.17307 19062 ft 301 kts 249°
2026-04-26 01:21 34.15315 -117.19681 18752 ft 294 kts 249°
2026-04-26 01:21 34.14673 -117.22009 18396 ft 290 kts 249°
2026-04-26 01:21 34.14036 -117.24316 17999 ft 290 kts 249°
2026-04-26 01:21 34.13401 -117.26620 17617 ft 288 kts 249°
2026-04-26 01:22 34.12773 -117.28899 17294 ft 284 kts 249°
2026-04-26 01:22 34.12157 -117.31134 16956 ft 281 kts 249°
2026-04-26 01:22 34.11538 -117.33373 16601 ft 279 kts 249°
2026-04-26 01:22 34.10927 -117.35585 16267 ft 277 kts 249°
2026-04-26 01:23 34.10327 -117.37790 15917 ft 275 kts 250°
2026-04-26 01:23 34.09779 -117.39969 15574 ft 274 kts 251°
2026-04-26 01:23 34.09237 -117.42163 15225 ft 272 kts 251°
2026-04-26 01:23 34.08696 -117.44339 14882 ft 270 kts 250°
2026-04-26 01:24 34.08154 -117.46509 14552 ft 269 kts 250°
2026-04-26 01:24 34.07613 -117.48670 14218 ft 269 kts 252°
2026-04-26 01:24 34.07031 -117.50818 13863 ft 269 kts 248°
2026-04-26 01:24 34.06296 -117.52898 13508 ft 270 kts 246°
2026-04-26 01:25 34.05527 -117.54965 13139 ft 270 kts 245°
2026-04-26 01:25 34.04761 -117.57031 12781 ft 269 kts 246°
2026-04-26 01:25 34.04012 -117.59073 12439 ft 268 kts 246°
2026-04-26 01:25 34.03269 -117.61119 12099 ft 263 kts 246°
2026-04-26 01:26 34.02544 -117.63123 11778 ft 259 kts 246°
2026-04-26 01:26 34.01830 -117.65106 11469 ft 258 kts 245°
2026-04-26 01:26 34.01156 -117.67102 11141 ft 258 kts 255°
2026-04-26 01:26 34.00928 -117.69255 10829 ft 258 kts 263°
2026-04-26 01:27 34.00770 -117.71383 10516 ft 258 kts 261°
2026-04-26 01:27 34.00542 -117.73532 10197 ft 258 kts 259°
2026-04-26 01:27 34.00302 -117.75681 9872 ft 258 kts 259°
2026-04-26 01:27 34.00071 -117.77821 9506 ft 258 kts 260°
2026-04-26 01:28 33.99844 -117.79957 9186 ft 257 kts 260°
2026-04-26 01:28 33.99614 -117.82102 8847 ft 258 kts 260°
2026-04-26 01:28 33.99388 -117.84221 8527 ft 258 kts 260°
2026-04-26 01:28 33.99161 -117.86348 8240 ft 253 kts 261°
2026-04-26 01:29 33.98938 -117.88439 7894 ft 249 kts 261°
2026-04-26 01:29 33.98718 -117.90503 7553 ft 247 kts 261°
2026-04-26 01:29 33.98501 -117.92558 7229 ft 245 kts 261°
2026-04-26 01:29 33.98284 -117.94583 6983 ft 240 kts 261°
2026-04-26 01:30 33.98073 -117.96572 6667 ft 246 kts 261°
2026-04-26 01:30 33.97847 -117.98639 6356 ft 251 kts 262°
2026-04-26 01:30 33.97601 -118.00733 6017 ft 252 kts 261°
2026-04-26 01:30 33.97356 -118.02824 5687 ft 252 kts 261°
2026-04-26 01:31 33.97110 -118.04919 5356 ft 252 kts 261°
2026-04-26 01:31 33.96863 -118.06999 5035 ft 249 kts 261°
2026-04-26 01:31 33.96628 -118.09006 4756 ft 241 kts 261°
2026-04-26 01:31 33.96402 -118.10990 4417 ft 236 kts 261°
2026-04-26 01:32 33.96182 -118.12930 4114 ft 231 kts 261°
2026-04-26 01:32 33.95971 -118.14823 3812 ft 225 kts 261°
2026-04-26 01:32 33.95765 -118.16667 3524 ft 219 kts 261°
2026-04-26 01:32 33.95560 -118.18469 3258 ft 214 kts 261°
2026-04-26 01:33 33.95362 -118.20224 2988 ft 207 kts 261°
2026-04-26 01:33 33.95173 -118.21892 2741 ft 199 kts 261°
2026-04-26 01:33 33.94989 -118.23514 2471 ft 192 kts 261°
2026-04-26 01:33 33.94806 -118.25060 2241 ft 182 kts 261°
2026-04-26 01:34 33.94634 -118.26551 2001 ft 179 kts 263°
2026-04-26 01:34 33.94580 -118.28035 1764 ft 172 kts 269°
2026-04-26 01:34 33.94607 -118.29432 1565 ft 165 kts 265°
2026-04-26 01:34 33.94492 -118.30789 1405 ft 162 kts 263°
2026-04-26 01:35 33.94375 -118.32096 1178 ft 153 kts 262°
2026-04-26 01:35 33.94248 -118.33324 962 ft 144 kts 262°
2026-04-26 01:35 33.94112 -118.34546 707 ft 148 kts 261°
2026-04-26 01:35 33.93995 -118.35756 547 ft 145 kts 262°
2026-04-26 01:36 33.93863 -118.36966 335 ft 146 kts 260°
2026-04-26 01:36 33.93747 -118.38167 151 ft 142 kts 261°
2026-04-26 01:36 33.93635 -118.39278 92 ft 120 kts 263°
2026-04-26 01:37 33.93575 -118.40201 95 ft 23 kts 283°
2026-04-26 01:37 33.93619 -118.40357 94 ft 17 kts 285°
2026-04-26 01:37 33.93624 -118.40458 94 ft 9 kts 266°
2026-04-26 01:37 33.93616 -118.40529 94 ft 8 kts 263°
2026-04-26 01:38 33.93609 -118.40598 95 ft 8 kts 263°
2026-04-26 01:38 33.93603 -118.40664 93 ft 8 kts 264°
2026-04-26 01:38 33.93597 -118.40728 94 ft 8 kts 264°
2026-04-26 01:38 33.93590 -118.40791 92 ft 7 kts 267°
2026-04-26 01:39 33.93593 -118.40813 93 ft 0 kts 285°
2026-04-26 01:43 33.93597 -118.40832 95 ft 6 kts 286°
2026-04-26 01:43 33.93635 -118.40885 94 ft 11 kts 336°
2026-04-26 01:43 33.93709 -118.40902 94 ft 11 kts 350°
2026-04-26 01:43 33.93782 -118.40913 93 ft 10 kts 354°
2026-04-26 01:44 33.93853 -118.40916 94 ft 10 kts 25°
2026-04-26 01:44 33.93877 -118.40839 92 ft 10 kts 83°
2026-04-26 01:44 33.93885 -118.40758 94 ft 10 kts 83°
2026-04-26 01:44 33.93894 -118.40675 94 ft 11 kts 82°
2026-04-26 01:45 33.93904 -118.40579 94 ft 13 kts 84°
2026-04-26 01:45 33.93914 -118.40466 93 ft 14 kts 83°
2026-04-26 01:45 33.93928 -118.40340 93 ft 16 kts 83°
2026-04-26 01:45 33.93944 -118.40212 94 ft 15 kts 77°
2026-04-26 01:46 33.93956 -118.40088 93 ft 15 kts 86°
2026-04-26 01:46 33.93965 -118.39969 96 ft 14 kts 83°
2026-04-26 01:46 33.93976 -118.39856 93 ft 13 kts 82°
2026-04-26 01:46 33.94037 -118.39826 94 ft 10 kts 356°
2026-04-26 01:47 33.94107 -118.39828 92 ft 10 kts 355°
2026-04-26 01:47 33.94175 -118.39838 93 ft 10 kts 352°
2026-04-26 01:47 33.94230 -118.39842 92 ft 6 kts 12°
2026-04-26 01:47 33.94240 -118.39815 93 ft 6 kts 89°
2026-04-26 01:48 33.94242 -118.39784 94 ft 1 kts 84°
2026-04-26 01:48 33.94242 -118.39782 94 ft 0 kts 84°